Погода в Кингисеппском

Россия / Санкт-Петербург и Ленинградская область     59°24′03″N   28°33′52″E
темп.,
°C
ветер,
м/с
пор.,
м/с
влажн.,
%
обл.,
%
осадки,
мм/ч
давл.,
гПа
погр.,
м
3 марта, ср
ср300:000зсз411892 0.0 1020453
03:00−1зсз311911 0.0 1020413
06:00−2зсз4109421 0.0 1018441
09:00−1з5129043 0.0 1018601
12:00+2зсз6137318 0.0 1015847
15:00+3зсз6137141 0.0 1012925
18:00+2з5148190 0.0 1009832
21:00+2зсз6139395 0.4 1007814
4 марта, чт
чт400:000сз3987100 0.3 1006722
03:00−2сз278099 0.3 1006317
06:00−3сз26845 0.0 1004219
09:00−3сз36823 0.0 1005405
12:00−2ссз467756 0.0 1004747
15:00−3ссз577379 0.1 1005933
18:00−4ссз4873100 0.1 10051023
21:00−5ссз288090 0.1 1007752
5 марта, пт
пт500:00−5ссз278223 0.0 1007382
03:00−6ссз378142 0.0 1009506
06:00−7ссз378277 0.0 1009501
09:00−7ссз378160 0.0 1011607
12:00−6ссз357391 0.0 1013777
15:00−5ссз466996 0.1 1014863
18:00−5сз377699 0.0 1015872
21:00−6ссз268691 0.1 1016265
6 марта, сб
сб600:00−7зсз25872 0.0 1018155
03:00−8зсз24881 0.0 1018109
06:00−8юз22870 0.0 101672
09:00−6юз410785 0.0 1015454
12:00−3юз5106584 0.0 1011960
15:00−3юз8158992 0.9 10061212
18:00−2юз71593100 1.9 10001242
21:00−1зюз71596100 5.1 9961014
7 марта, вс
вс700:000зюз71497100 3.2 9911061
03:000зсз71396100 8.4 9871145
06:00−7зсз6146667 0.8 9861329
09:00−8зсз8157970 0.9 9861313
12:00−6зсз91778100 1.1 9881392
15:00−6сз81486100 1.4 9911269
18:00−7ссз71392100 1.4 9951122
21:00−9с71385100 2.1 10001083